GW4663 Weather Reports


time (UTC)temp
C
wind
direction
speed
KPH
gust
KPH
rain 1hr
cm
rain 24hr
cm
rain mn
cm
humidity
%
barometer
mb
20260505140651 2 89 0.0 0.0 0.00 0.23 0.23 88 1003.2
20260505140148 2 101 1.6 1.6 0.00 0.23 0.23 88 1003.2
20260505130112 2 51 4.8 4.8 0.00 0.18 0.18 88 1002.6
20260505124602 2 13 9.7 12.9 0.00 0.18 0.18 87 1002.1
20260505124058 2 78 6.4 9.7 0.13 0.18 0.18 88 1002.0
20260505123554 3 31 12.9 16.1 0.13 0.18 0.18 88 1001.6
20260505123051 3 358 6.4 9.7 0.18 0.15 0.15 88 1001.6
20260505122547 3 40 8.0 12.9 0.18 0.15 0.15 87 1001.9
20260505122044 3 52 11.3 16.1 0.13 0.13 0.13 86 1001.5
20260505121540 3 342 9.7 11.3 0.13 0.13 0.13 86 1001.4
20260505121037 3 46 6.4 9.7 0.18 0.10 0.10 85 1001.4
20260505120529 3 63 9.7 16.1 0.18 0.10 0.10 85 1001.0
20260505120024 3 18 11.3 14.5 0.18 0.08 0.08 85 1001.1
20260505115519 3 57 8.0 12.9 0.18 0.08 0.08 85 1001.3
20260505115017 3 54 4.8 9.7 0.13 0.05 0.05 85 1001.0
20260505114513 4 16 16.1 16.1 0.30 0.05 0.05 85 1001.0
20260505114010 4 17 14.5 17.7 0.18 0.03 0.03 84 1000.9
20260505113506 5 12 6.4 9.7 0.00 0.00 0.00 84 1000.7
20260505113003 5 346 4.8 6.4 0.00 0.00 0.00 83 1000.9
20260505112459 6 25 3.2 3.2 0.00 0.00 0.00 82 1000.8
20260505111956 5 31 6.4 9.7 0.00 0.00 0.00 81 1000.7
20260505111455 5 51 4.8 11.3 0.00 0.00 0.00 81 1000.6
20260505110952 5 16 6.4 9.7 0.00 0.00 0.00 81 1000.3
20260505110449 6 32 6.4 6.4 0.00 0.00 0.00 81 1000.3
20260505101921 6 78 3.2 4.8 0.00 0.00 0.00 81 999.8
20260505101421 7 36 3.2 4.8 0.00 0.00 0.00 81 999.6
20260505100916 7 43 0.0 1.6 0.00 0.00 0.00 83 999.6
20260505100413 7 346 3.2 3.2 0.00 0.00 0.00 82 999.6
20260505095909 7 36 0.0 1.6 0.00 0.00 0.00 81 999.5
20260505095406 7 47 3.2 3.2 0.00 0.00 0.00 81 999.1
20260505094902 7 60 3.2 3.2 0.00 0.00 0.00 80 999.1
20260505094400 7 60 3.2 3.2 0.00 0.00 0.00 80 999.1
20260505093855 7 51 1.6 3.2 0.00 0.00 0.00 80 999.6
20260505093353 7 56 0.0 1.6 0.00 0.00 0.00 80 999.3
20260505092850 7 90 0.0 1.6 0.00 0.00 0.00 80 999.4
20260505092348 7 111 0.0 0.0 0.00 0.00 0.00 81 999.3
20260505091845 7 61 3.2 4.8 0.00 0.00 0.00 81 999.4
20260505091343 7 61 0.0 1.6 0.00 0.00 0.00 82 999.3
20260505090841 7 55 1.6 1.6 0.00 0.00 0.00 82 999.3
20260505090339 8 353 0.0 3.2 0.00 0.00 0.00 83 999.1
20260505085835 8 68 1.6 1.6 0.00 0.00 0.00 83 999.4
20260505085333 8 43 0.0 0.0 0.00 0.00 0.00 83 999.5
20260505084831 8 68 0.0 0.0 0.00 0.00 0.00 83 999.3
20260505084329 8 14 3.2 3.2 0.00 0.00 0.00 82 999.5
20260505083826 8 96 0.0 1.6 0.00 0.00 0.00 82 999.4
20260505083324 8 104 0.0 1.6 0.00 0.00 0.00 83 999.3
20260505082820 8 69 0.0 1.6 0.00 0.00 0.00 84 999.5
20260505082311 8 96 0.0 0.0 0.00 0.00 0.00 84 999.6
20260505081808 8 120 0.0 0.0 0.00 0.00 0.00 85 999.6
20260505081304 8 126 0.0 0.0 0.00 0.00 0.00 85 999.6
20260505080801 8 126 0.0 0.0 0.00 0.00 0.00 85 999.6
20260505080257 8 126 0.0 0.0 0.00 0.00 0.00 85 999.5
20260505075752 8 129 0.0 0.0 0.00 0.00 0.00 85 999.5
20260505075250 8 136 0.0 0.0 0.00 0.00 0.00 85 999.5
20260505074747 8 148 0.0 0.0 0.00 0.00 0.00 85 999.6
20260505074244 8 146 0.0 0.0 0.00 0.00 0.00 85 999.5
20260505073742 8 149 0.0 1.6 0.00 0.00 0.00 85 999.6
20260505073239 8 146 1.6 1.6 0.00 0.00 0.00 85 999.8
20260505072736 8 154 0.0 0.0 0.00 0.00 0.00 85 1000.0
20260505072232 8 146 1.6 3.2 0.00 0.00 0.00 85 1000.2
20260505071727 8 145 1.6 1.6 0.00 0.00 0.00 85 1000.0
20260505071225 8 148 0.0 0.0 0.00 0.00 0.00 85 1000.2
20260505070722 8 146 1.6 1.6 0.00 0.00 0.00 85 1000.3
20260505070218 8 147 1.6 1.6 0.00 0.00 0.00 85 1000.2
20260505065714 8 137 1.6 1.6 0.00 0.00 0.00 86 999.7
20260505065211 8 149 1.6 3.2 0.00 0.00 0.00 86 1000.1
20260505064708 8 146 1.6 1.6 0.00 0.00 0.00 86 1000.1
20260505064206 8 158 0.0 1.6 0.00 0.00 0.00 86 1000.2
20260505063703 8 144 1.6 1.6 0.00 0.00 0.00 86 1000.1
20260505063159 8 149 1.6 1.6 0.00 0.00 0.00 86 1000.2
20260505062655 8 149 1.6 1.6 0.00 0.00 0.00 86 1000.1
20260505062153 8 149 0.0 0.0 0.00 0.00 0.00 86 1000.3
20260505061650 8 152 1.6 1.6 0.00 0.00 0.00 85 1000.1
20260505061148 8 146 1.6 3.2 0.00 0.00 0.00 85 1000.2
20260505060645 8 164 4.8 6.4 0.00 0.00 0.00 85 1000.2
20260505060142 8 152 1.6 3.2 0.00 0.00 0.00 85 1000.4
20260505055637 8 150 1.6 1.6 0.00 0.30 0.30 85 1000.3
20260505055134 8 172 1.6 1.6 0.00 0.30 0.30 85 1000.2
20260505054631 8 178 1.6 1.6 0.00 0.30 0.30 85 1000.1
20260505054129 8 150 1.6 3.2 0.00 0.30 0.30 85 999.7
20260505053627 8 157 3.2 3.2 0.00 0.30 0.30 85 1000.1
20260505053123 8 140 1.6 1.6 0.00 0.30 0.30 84 1000.1
20260505052620 8 159 3.2 3.2 0.00 0.30 0.30 84 1000.3
20260505052117 8 148 1.6 1.6 0.00 0.30 0.30 84 1000.1
20260505051614 8 142 1.6 1.6 0.00 0.30 0.30 84 1000.4
20260505051112 8 168 0.0 0.0 0.13 0.30 0.30 84 1000.3
20260505050610 8 170 1.6 1.6 0.13 0.30 0.30 84 1000.7
20260505050108 8 166 0.0 0.0 0.18 0.28 0.28 84 1000.7
20260505041537 8 263 3.2 3.2 0.13 0.25 0.25 82 1000.7
20260505041035 8 180 0.0 1.6 0.30 0.25 0.25 81 1000.8
20260505040532 8 256 3.2 4.8 0.48 0.23 0.23 81 1000.7
20260505040029 8 242 4.8 4.8 0.30 0.20 0.20 79 1000.7
20260505035525 9 223 9.7 14.5 0.13 0.15 0.15 77 1000.4
20260505035022 10 269 6.4 9.7 0.30 0.15 0.15 74 1000.4
20260505034518 11 325 1.6 3.2 0.18 0.13 0.13 69 1000.3
20260505034015 11 176 0.0 1.6 0.00 0.10 0.10 65 1000.2
20260505033513 11 48 8.0 12.9 0.00 0.10 0.10 61 1000.0
20260505033011 11 297 3.2 4.8 0.00 0.10 0.10 62 1000.0
20260505032508 11 54 1.6 1.6 0.00 0.10 0.10 62 999.7
20260505032004 11 149 0.0 0.0 0.00 0.10 0.10 62 999.5
20260505031501 11 207 0.0 1.6 0.00 0.10 0.10 61 999.4
20260505030958 11 216 0.0 1.6 0.00 0.10 0.10 61 999.4
20260505030455 11 233 3.2 3.2 0.00 0.10 0.10 61 999.4
20260505025950 11 320 1.6 3.2 0.00 0.10 0.10 60 999.3
20260505025447 11 5 4.8 9.7 0.00 0.10 0.10 61 999.3
20260505024946 11 60 1.6 1.6 0.00 0.10 0.10 61 999.1
20260505024442 11 91 0.0 1.6 0.00 0.10 0.10 61 999.0
20260505023939 11 114 0.0 0.0 0.00 0.10 0.10 61 998.9
20260505023436 11 123 1.6 1.6 0.00 0.10 0.10 60 999.0
20260505022933 11 122 0.0 0.0 0.00 0.10 0.10 60 998.8
20260505022431 11 34 3.2 3.2 0.00 0.10 0.10 60 998.8
20260505021928 11 109 0.0 0.0 0.00 0.10 0.10 61 998.9
20260505021425 11 46 3.2 4.8 0.00 0.10 0.10 60 998.8
20260505020920 11 102 0.0 0.0 0.00 0.10 0.10 61 998.9
20260505020416 11 96 0.0 0.0 0.00 0.10 0.10 61 999.0
20260505015913 11 298 3.2 3.2 0.00 0.10 0.10 60 999.3
20260505015410 11 75 0.0 0.0 0.00 0.10 0.10 60 998.7
20260505014907 11 48 1.6 1.6 0.00 0.10 0.10 60 998.4
20260505014404 12 113 0.0 0.0 0.00 0.10 0.10 59 998.3
20260505013901 11 40 3.2 4.8 0.00 0.10 0.10 57 998.3
20260505013358 11 90 0.0 0.0 0.00 0.10 0.10 60 998.3
20260505012856 11 9 3.2 4.8 0.00 0.10 0.10 61 998.3
20260505012354 11 117 1.6 1.6 0.00 0.10 0.10 61 998.2
20260505011850 11 54 3.2 4.8 0.00 0.10 0.10 63 998.3
20260505011347 11 343 4.8 9.7 0.00 0.10 0.10 66 998.2
20260505010843 11 6 8.0 9.7 0.13 0.10 0.10 65 998.5
20260505010338 11 3 4.8 4.8 0.13 0.10 0.10 63 998.7
20260505005835 11 5 4.8 6.4 0.00 0.08 0.08 61 998.5
20260505005332 12 308 1.6 3.2 0.18 0.08 0.08 60 998.7
20260505004830 12 68 8.0 11.3 0.18 0.08 0.08 53 998.4
20260505004325 13 294 11.3 14.5 0.00 0.05 0.05 50 998.5
20260505003823 13 348 12.9 14.5 0.00 0.05 0.05 46 998.4
20260505003320 14 323 9.7 16.1 0.00 0.05 0.05 43 998.3
20260505002816 13 216 8.0 14.5 0.00 0.05 0.05 43 998.3
20260505002313 13 297 14.5 20.9 0.00 0.05 0.05 46 998.2
20260505001812 13 6 3.2 4.8 0.18 0.05 0.05 48 997.8
20260505001308 13 7 4.8 4.8 0.18 0.05 0.05 50 997.7
20260505000806 13 42 3.2 3.2 0.13 0.03 0.03 50 997.8
20260505000303 13 345 6.4 6.4 0.13 0.03 0.03 45 997.8
20260504235800 14 124 0.0 1.6 0.13 0.03 0.03 48 997.7
20260504235256 15 295 6.4 11.3 0.00 0.00 0.00 40 997.7
20260504234753 15 49 12.9 25.7 0.00 0.00 0.00 39 997.8
20260504234251 16 292 9.7 12.9 0.00 0.00 0.00 35 997.8
20260504233747 16 254 12.9 20.9 0.00 0.00 0.00 30 997.2
20260504233243 17 319 9.7 14.5 0.00 0.00 0.00 30 997.1
20260504232740 17 340 6.4 11.3 0.00 0.00 0.00 29 997.0
20260504232237 17 358 14.5 17.7 0.00 0.00 0.00 29 996.9
20260504231734 17 0 12.9 14.5 0.00 0.00 0.00 29 997.0
20260504231230 17 36 17.7 24.1 0.00 0.00 0.00 29 997.0
20260504230726 17 350 8.0 9.7 0.00 0.00 0.00 29 996.9
20260504230225 17 323 8.0 12.9 0.00 0.00 0.00 29 996.7
20260504225724 17 157 4.8 4.8 0.00 0.00 0.00 29 996.7
20260504225219 17 310 4.8 4.8 0.00 0.00 0.00 29 996.7
20260504224716 17 312 14.5 20.9 0.00 0.00 0.00 28 996.5
20260504224214 17 33 8.0 12.9 0.00 0.00 0.00 29 996.5
20260504223710 17 330 6.4 9.7 0.00 0.00 0.00 28 996.5
20260504223205 17 56 6.4 11.3 0.00 0.00 0.00 28 996.7
20260504222703 17 10 14.5 22.5 0.00 0.00 0.00 28 996.3
20260504222159 17 331 11.3 14.5 0.00 0.00 0.00 27 996.5
20260504221657 17 341 14.5 22.5 0.00 0.00 0.00 27 996.4
20260504221154 17 307 6.4 11.3 0.00 0.00 0.00 27 996.4
20260504220650 17 325 11.3 14.5 0.00 0.00 0.00 27 996.4
20260504220148 18 321 14.5 17.7 0.00 0.00 0.00 26 995.8
20260504215644 19 333 8.0 9.7 0.00 0.00 0.00 21 995.8
20260504215142 19 7 9.7 11.3 0.00 0.00 0.00 21 995.7
20260504214637 19 224 6.4 12.9 0.00 0.00 0.00 21 995.9
20260504214134 20 26 6.4 6.4 0.00 0.00 0.00 21 995.9
20260504213630 20 3 3.2 4.8 0.00 0.00 0.00 21 996.2
20260504213127 20 27 12.9 16.1 0.00 0.00 0.00 20 996.4
20260504212624 20 6 9.7 12.9 0.00 0.00 0.00 20 996.1
20260504212120 20 320 4.8 4.8 0.00 0.00 0.00 20 996.4
20260504211618 20 24 12.9 16.1 0.00 0.00 0.00 20 996.3
20260504211114 21 313 4.8 4.8 0.00 0.00 0.00 19 996.4
20260504210612 20 304 3.2 4.8 0.00 0.00 0.00 20 996.4
20260504210108 20 25 8.0 14.5 0.00 0.00 0.00 20 996.4
20260504205606 20 303 3.2 4.8 0.00 0.00 0.00 20 996.5
20260504205103 20 345 8.0 9.7 0.00 0.00 0.00 20 996.8
20260504204601 20 45 4.8 6.4 0.00 0.00 0.00 21 996.5
20260504204100 20 302 8.0 11.3 0.00 0.00 0.00 20 996.5
20260504203558 20 325 6.4 9.7 0.00 0.00 0.00 20 996.8
20260504203055 21 283 3.2 6.4 0.00 0.00 0.00 21 997.1
20260504202550 20 192 4.8 6.4 0.00 0.00 0.00 22 996.8
20260504202048 20 262 8.0 11.3 0.00 0.00 0.00 22 996.8
20260504201545 20 168 4.8 4.8 0.00 0.00 0.00 22 996.9
20260504201043 20 267 8.0 9.7 0.00 0.00 0.00 20 996.5
20260504200538 20 246 1.6 1.6 0.00 0.00 0.00 21 996.8
20260504200036 20 320 6.4 6.4 0.00 0.00 0.00 21 996.9
20260504195532 20 302 4.8 4.8 0.00 0.00 0.00 21 996.9
20260504195028 20 228 8.0 11.3 0.00 0.00 0.00 21 996.9
20260504194525 20 272 6.4 9.7 0.00 0.00 0.00 21 996.9
20260504194020 19 243 6.4 11.3 0.00 0.00 0.00 21 996.7
20260504193517 20 198 1.6 1.6 0.00 0.00 0.00 20 997.0
20260504193016 18 239 4.8 6.4 0.00 0.00 0.00 21 997.0
20260504192514 18 80 3.2 4.8 0.00 0.00 0.00 22 996.9
20260504192012 18 162 3.2 4.8 0.00 0.00 0.00 24 997.5
20260504191509 19 210 1.6 3.2 0.00 0.00 0.00 22 997.8
20260504191005 18 59 8.0 11.3 0.00 0.00 0.00 21 997.5
20260504190501 20 76 3.2 4.8 0.00 0.00 0.00 20 997.4
20260504185957 20 59 6.4 12.9 0.00 0.00 0.00 19 997.4
20260504185455 20 183 0.0 0.0 0.00 0.00 0.00 19 997.2
20260504184951 20 143 0.0 0.0 0.00 0.00 0.00 19 996.9
20260504184447 20 345 4.8 4.8 0.00 0.00 0.00 19 997.0
20260504183942 20 268 3.2 3.2 0.00 0.00 0.00 19 996.9
20260504183440 20 170 0.0 0.0 0.00 0.00 0.00 19 996.8
20260504182938 20 350 6.4 9.7 0.00 0.00 0.00 19 996.9
20260504182434 21 258 8.0 9.7 0.00 0.00 0.00 17 997.0
20260504181932 21 283 4.8 6.4 0.00 0.00 0.00 18 996.8
20260504181429 21 280 4.8 4.8 0.00 0.00 0.00 18 996.9
20260504180927 21 0 3.2 4.8 0.00 0.00 0.00 19 996.9
20260504180426 21 65 8.0 11.3 0.00 0.00 0.00 17 997.1
20260504175924 21 78 1.6 1.6 0.00 0.00 0.00 17 996.8
20260504175420 21 353 6.4 11.3 0.00 0.00 0.00 15 997.0
20260504174918 22 335 8.0 16.1 0.00 0.00 0.00 16 997.0
20260504174415 21 274 4.8 6.4 0.00 0.00 0.00 18 997.2
20260504173913 22 59 4.8 6.4 0.00 0.00 0.00 18 997.2
20260504173409 22 252 11.3 17.7 0.00 0.00 0.00 17 997.6
20260504172907 22 331 4.8 6.4 0.00 0.00 0.00 17 997.6
20260504172403 21 258 3.2 3.2 0.00 0.00 0.00 18 997.5
20260504171859 21 256 4.8 6.4 0.00 0.00 0.00 18 997.5
20260504171356 21 295 8.0 11.3 0.00 0.00 0.00 18 997.5
20260504170853 21 254 9.7 11.3 0.00 0.00 0.00 18 997.7
20260504170350 22 248 6.4 11.3 0.00 0.00 0.00 19 997.8
20260504160308 20 218 8.0 9.7 0.00 0.00 0.00 20 998.2
20260504150733 18 201 6.4 12.9 0.00 0.00 0.00 22 998.4
20260504150230 17 177 4.8 4.8 0.00 0.00 0.00 23 998.7